TGL25C LFQQ-LFLL

Flight info

Callsign TGL25C
Flight time N/A
Altitude 29000
Route VERMA T372 LESDO DCT KOVIN DCT CLM DCT VEZAQ UL194 ODEBU UL612 OGULO DCT OKASI DCT OKEKO DCT OKEPI DCT MOU A3 FEDZI
Aircraft A320/M-SDE3FGHIRWY/LB1

Departure

Time N/A
Airport Lille Airport (LFQQ)

Arrival

Time 2026-05-01 08:16
Airport Lyon Saint-Exupéry Airport (LFLL)
Time Latitude Longitude Altitude Speed Heading
2026-05-01 07:23 48.62626 3.70274 29254 ft 384 kts 166°
2026-05-01 07:24 48.54821 3.72775 29256 ft 384 kts 166°
2026-05-01 07:24 48.49600 3.74435 29250 ft 383 kts 166°
2026-05-01 07:25 48.44350 3.76115 29247 ft 383 kts 166°
2026-05-01 07:25 48.39175 3.77772 29245 ft 383 kts 166°
2026-05-01 07:26 48.33960 3.79422 29255 ft 383 kts 166°
2026-05-01 07:26 48.28750 3.81060 29250 ft 383 kts 166°
2026-05-01 07:27 48.23539 3.82703 29246 ft 382 kts 166°
2026-05-01 07:27 48.18333 3.84346 29242 ft 382 kts 166°
2026-05-01 07:28 48.13034 3.86034 29240 ft 392 kts 166°
2026-05-01 07:28 48.07772 3.87679 29243 ft 383 kts 166°
2026-05-01 07:29 48.02563 3.89300 29244 ft 382 kts 166°
2026-05-01 07:29 47.97358 3.90923 29245 ft 382 kts 166°
2026-05-01 07:30 47.92156 3.92548 29242 ft 381 kts 165°
2026-05-01 07:30 47.86964 3.94172 29239 ft 381 kts 165°
2026-05-01 07:31 47.81779 3.95786 29237 ft 380 kts 166°
2026-05-01 07:32 47.68825 3.99792 29241 ft 380 kts 165°
2026-05-01 07:33 47.61064 4.02190 29236 ft 379 kts 165°
2026-05-01 07:33 47.53311 4.04564 29234 ft 379 kts 166°
2026-05-01 07:34 47.45562 4.06934 29250 ft 378 kts 166°
2026-05-01 07:35 47.40440 4.08503 29244 ft 378 kts 165°
2026-05-01 07:35 47.35294 4.10072 29245 ft 378 kts 166°
2026-05-01 07:36 47.30146 4.11645 29260 ft 377 kts 165°
2026-05-01 07:36 47.25018 4.13203 29246 ft 376 kts 166°
2026-05-01 07:37 47.17306 4.15541 29227 ft 377 kts 166°
2026-05-01 07:37 47.12164 4.17094 29226 ft 377 kts 166°
2026-05-01 07:38 47.07027 4.18640 29237 ft 377 kts 166°
2026-05-01 07:39 47.00186 4.20710 29234 ft 377 kts 166°
2026-05-01 07:39 46.92490 4.23014 29233 ft 376 kts 166°
2026-05-01 07:40 46.87361 4.24546 29236 ft 376 kts 166°
2026-05-01 07:40 46.82246 4.26080 29240 ft 375 kts 166°
2026-05-01 07:41 46.77134 4.27606 29244 ft 375 kts 166°
2026-05-01 07:42 46.69480 4.29881 29240 ft 374 kts 166°
2026-05-01 07:42 46.64379 4.31390 29245 ft 377 kts 166°
2026-05-01 07:43 46.59106 4.32963 28468 ft 382 kts 166°
2026-05-01 07:43 46.56517 4.33727 27674 ft 375 kts 166°
2026-05-01 07:43 46.51540 4.35185 26916 ft 361 kts 166°
2026-05-01 07:44 46.46685 4.36617 26084 ft 352 kts 166°
2026-05-01 07:44 46.41941 4.38021 25261 ft 344 kts 166°
2026-05-01 07:45 46.39605 4.38708 24829 ft 342 kts 166°
2026-05-01 07:45 46.37283 4.39389 24396 ft 339 kts 166°
2026-05-01 07:45 46.34980 4.40065 23967 ft 337 kts 166°
2026-05-01 07:45 46.32685 4.40738 23473 ft 335 kts 166°
2026-05-01 07:46 46.30428 4.41404 23143 ft 322 kts 166°
2026-05-01 07:46 46.28290 4.42045 23011 ft 307 kts 166°
2026-05-01 07:46 46.24240 4.43223 22667 ft 289 kts 167°
2026-05-01 07:47 46.22285 4.43786 22334 ft 283 kts 167°
2026-05-01 07:47 46.20361 4.44343 21773 ft 280 kts 166°
2026-05-01 07:47 46.18460 4.44898 21235 ft 277 kts 166°
2026-05-01 07:47 46.16581 4.45447 20703 ft 274 kts 166°
2026-05-01 07:48 46.12912 4.46518 19819 ft 264 kts 166°
2026-05-01 07:48 46.11122 4.47040 19335 ft 261 kts 166°
2026-05-01 07:48 46.09351 4.47555 18904 ft 259 kts 166°
2026-05-01 07:49 46.07627 4.48059 18795 ft 247 kts 166°
2026-05-01 07:49 46.04299 4.49082 18231 ft 251 kts 165°
2026-05-01 07:49 46.02498 4.49735 17880 ft 278 kts 160°
2026-05-01 07:50 46.00722 4.50914 17307 ft 286 kts 147°
2026-05-01 07:50 45.97954 4.55032 16491 ft 291 kts 122°
2026-05-01 07:50 45.96895 4.57523 16114 ft 292 kts 124°
2026-05-01 07:51 45.95621 4.59778 15724 ft 292 kts 137°
2026-05-01 07:51 45.94011 4.61544 15357 ft 292 kts 150°
2026-05-01 07:51 45.92197 4.62859 14977 ft 293 kts 154°
2026-05-01 07:52 45.88514 4.65434 14231 ft 296 kts 154°
2026-05-01 07:52 45.86661 4.66731 13825 ft 297 kts 154°
2026-05-01 07:52 45.84801 4.68035 13430 ft 297 kts 154°
2026-05-01 07:53 45.81094 4.70642 12664 ft 296 kts 154°
2026-05-01 07:53 45.79246 4.71942 12264 ft 296 kts 154°
2026-05-01 07:53 45.77397 4.73236 11883 ft 296 kts 154°
2026-05-01 07:53 45.75545 4.74526 11495 ft 296 kts 154°
2026-05-01 07:54 45.71867 4.77087 10813 ft 292 kts 154°
2026-05-01 07:55 45.66444 4.80868 9468 ft 282 kts 154°
2026-05-01 07:55 45.63045 4.83228 8657 ft 261 kts 154°
2026-05-01 07:56 45.58701 4.87365 7505 ft 255 kts 128°
2026-05-01 07:56 45.56816 4.91686 6708 ft 258 kts 122°
2026-05-01 07:57 45.55881 4.93871 6281 ft 259 kts 122°
2026-05-01 07:57 45.54038 4.98161 5827 ft 244 kts 122°
2026-05-01 07:58 45.52596 5.02417 5518 ft 251 kts 101°
2026-05-01 07:58 45.53156 5.07175 5265 ft 240 kts 61°
2026-05-01 07:59 45.55568 5.10159 5017 ft 228 kts 21°
2026-05-01 07:59 45.58602 5.10542 4753 ft 215 kts 354°
2026-05-01 08:00 45.63805 5.09914 4273 ft 158 kts 353°
2026-05-01 08:01 45.67018 5.09523 3644 ft 154 kts 353°
2026-05-01 08:01 45.68078 5.09394 3510 ft 155 kts 353°
2026-05-01 08:01 45.69173 5.09261 3515 ft 158 kts 354°
2026-05-01 08:02 45.71494 5.08943 3538 ft 195 kts 354°
2026-05-01 08:02 45.72885 5.08744 3523 ft 204 kts 354°
2026-05-01 08:03 45.75576 5.07651 3521 ft 205 kts 313°
2026-05-01 08:03 45.76217 5.05912 3498 ft 202 kts 276°
2026-05-01 08:03 45.75022 5.02717 3240 ft 194 kts 202°
2026-05-01 08:04 45.72431 5.01654 3043 ft 193 kts 193°
2026-05-01 08:04 45.69839 5.00770 3013 ft 190 kts 192°
2026-05-01 08:05 45.67273 4.99906 3013 ft 190 kts 193°
2026-05-01 08:05 45.65991 4.99478 3014 ft 189 kts 193°
2026-05-01 08:05 45.64713 4.99057 3014 ft 189 kts 192°
2026-05-01 08:06 45.62148 4.98205 3016 ft 189 kts 192°
2026-05-01 08:06 45.59589 4.97358 3017 ft 188 kts 193°
2026-05-01 08:07 45.57033 4.96524 3017 ft 189 kts 193°
2026-05-01 08:07 45.54463 4.95693 3019 ft 189 kts 193°
2026-05-01 08:08 45.53177 4.95279 3019 ft 189 kts 193°
2026-05-01 08:08 45.50605 4.94439 3022 ft 190 kts 193°
2026-05-01 08:09 45.48117 4.95072 3021 ft 191 kts 137°
2026-05-01 08:09 45.47434 4.96675 3028 ft 194 kts 104°
2026-05-01 08:09 45.47499 4.98576 3022 ft 196 kts 69°
2026-05-01 08:10 45.49102 5.01714 3026 ft 200 kts 32°
2026-05-01 08:10 45.51393 5.03552 3015 ft 172 kts 30°
2026-05-01 08:11 45.53389 5.05133 3034 ft 159 kts 29°
2026-05-01 08:11 45.55246 5.06608 3026 ft 151 kts 30°
2026-05-01 08:12 45.57094 5.08071 3025 ft 155 kts 30°
2026-05-01 08:12 45.58047 5.08826 3028 ft 155 kts 31°
2026-05-01 08:12 45.59962 5.10122 3026 ft 154 kts 11°
2026-05-01 08:13 45.61030 5.10184 2824 ft 153 kts 356°
2026-05-01 08:13 45.62091 5.10093 2631 ft 153 kts 354°
2026-05-01 08:13 45.64195 5.09860 2219 ft 151 kts 354°
2026-05-01 08:14 45.65238 5.09736 2021 ft 150 kts 355°
2026-05-01 08:14 45.66279 5.09611 1805 ft 150 kts 355°
2026-05-01 08:14 45.67308 5.09487 1604 ft 147 kts 354°
2026-05-01 08:14 45.68330 5.09363 1415 ft 148 kts 355°
2026-05-01 08:15 45.69348 5.09241 1212 ft 145 kts 354°
2026-05-01 08:15 45.71359 5.08988 827 ft 143 kts 358°
2026-05-01 08:15 45.72213 5.08898 803 ft 99 kts 355°
2026-05-01 08:16 45.72725 5.08832 791 ft 49 kts 355°
2026-05-01 08:16 45.72927 5.08768 793 ft 19 kts 309°
2026-05-01 08:16 45.72948 5.08619 792 ft 13 kts 267°
2026-05-01 08:16 45.72943 5.08517 791 ft 10 kts 265°
2026-05-01 08:17 45.72938 5.08442 790 ft 4 kts 258°
2026-05-01 08:17 45.72925 5.08410 790 ft 5 kts 234°
2026-05-01 08:17 45.72882 5.08368 790 ft 8 kts 199°
2026-05-01 08:17 45.72838 5.08362 790 ft 5 kts 179°
2026-05-01 08:18 45.72780 5.08365 791 ft 13 kts 177°
2026-05-01 08:18 45.72555 5.08392 796 ft 15 kts 175°
2026-05-01 08:19 45.72352 5.08414 798 ft 10 kts 175°
2026-05-01 08:19 45.72286 5.08409 799 ft 9 kts 207°
2026-05-01 08:19 45.72253 5.08333 798 ft 9 kts 249°
2026-05-01 08:19 45.72227 5.08238 797 ft 11 kts 249°
2026-05-01 08:20 45.72216 5.08194 797 ft 0 kts 249°